FW0045 Weather Reports


Display with metric or nautical units.
time (UTC)temp
F
wind
direction
speed
MPH
gust
MPH
rain 1hr
in
rain 24hr
in
rain mn
in
humidity
%
barometer
mb
20171119083722 88 209 5.0 13.0 0.00 0.05 0.00 74 1003.9
20171119082219 88 239 2.0 10.0 0.00 0.05 0.00 74 1004.0
20171119080716 88 29 1.0 9.0 0.00 0.05 0.00 74 1003.9
20171119075312 88 100 1.0 10.0 0.00 0.05 0.00 76 1004.0
20171119073711 88 315 3.0 9.0 0.00 0.05 0.00 73 1004.2
20171119072210 89 195 4.0 8.0 0.00 0.05 0.00 73 1004.4
20171119070708 89 251 6.0 11.0 0.00 0.05 0.00 69 1004.6
20171119065204 88 281 2.0 7.0 0.00 0.05 0.00 73 1005.1
20171119063729 88 263 2.0 9.0 0.00 0.05 0.00 72 1005.4
20171119062212 86 284 3.0 11.0 0.00 0.05 0.00 74 1005.7
20171119060700 86 351 1.0 10.0 0.00 0.05 0.00 73 1005.9
20171119055155 87 296 2.0 6.0 0.00 0.05 0.00 73 1006.3
20171119053658 86 15 1.0 9.0 0.00 0.05 0.00 74 1006.5
20171119052235 84 284 3.0 9.0 0.00 0.05 0.00 78 1006.8
20171119050656 86 313 3.0 9.0 0.00 0.05 0.00 76 1007.0
20171119045223 86 297 2.0 7.0 0.00 0.05 0.00 76 1007.3
20171119043650 85 167 2.0 5.0 0.00 0.05 0.00 77 1007.7
20171119042151 84 217 0.0 6.0 0.00 0.05 0.00 79 1007.9
20171119040648 83 304 3.0 7.0 0.00 0.05 0.00 81 1008.0
20171119035146 84 274 1.0 6.0 0.00 0.05 0.00 80 1008.2
20171119033820 85 22 3.0 5.0 0.00 0.05 0.00 76 1008.2
20171119032612 85 266 2.0 5.0 0.00 0.05 0.00 77 1008.3
20171119030700 84 42 2.0 10.0 0.00 0.05 0.00 78 1008.4
20171119025139 84 284 1.0 7.0 0.00 0.05 0.00 80 1008.6
20171119023646 82 300 1.0 6.0 0.00 0.05 0.00 85 1008.6
20171119022155 82 350 0.0 4.0 0.00 0.05 0.00 84 1008.7
20171119020725 81 199 0.0 7.0 0.00 0.05 0.00 87 1008.7
20171119015130 81 314 4.0 7.0 0.00 0.05 0.00 87 1008.7
20171119013625 80 190 0.0 4.0 0.00 0.05 0.00 89 1008.6
20171119012122 79 184 0.0 4.0 0.00 0.05 0.00 89 1008.6
20171119010623 79 231 1.0 3.0 0.00 0.05 0.00 92 1008.6
20171119005114 78 208 0.0 0.0 0.00 0.05 0.00 93 1008.5
20171119003614 78 184 0.0 4.0 0.00 0.05 0.00 92 1008.4
20171119002119 78 186 0.0 3.0 0.00 0.05 0.00 93 1008.2
20171119000610 78 288 0.0 0.0 0.00 0.05 0.00 94 1008.1
20171118235114 77 282 1.0 4.0 0.00 0.05 0.00 94 1008.0
20171118233604 77 299 0.0 0.0 0.00 0.05 0.00 95 1007.5
20171118232103 76 302 0.0 0.0 0.00 0.05 0.00 95 1007.5
20171118230600 76 302 0.0 0.0 0.00 0.05 0.00 95 1007.2
20171118225106 76 302 0.0 0.0 0.00 0.05 0.00 95 1007.1
20171118223608 76 302 0.0 0.0 0.00 0.05 0.00 95 1007.0
20171118222054 76 302 0.0 4.0 0.00 0.05 0.00 95 1006.9
20171118220558 76 281 0.0 0.0 0.00 0.05 0.00 94 1006.8
20171118215053 76 281 0.0 2.0 0.00 0.05 0.00 94 1006.6
20171118213553 76 281 0.0 0.0 0.00 0.05 0.00 94 1006.4
20171118212107 76 272 0.0 2.0 0.00 0.05 0.00 94 1006.5
20171118210552 77 253 0.0 0.0 0.00 0.05 0.00 93 1006.3
20171118205102 77 355 0.0 0.0 0.00 0.05 0.00 93 1006.3
20171118203626 77 355 0.0 0.0 0.00 0.05 0.00 93 1006.1
20171118202047 77 355 0.0 0.0 0.00 0.05 0.00 93 1006.1
20171118200544 77 355 0.0 0.0 0.00 0.05 0.00 92 1006.2
20171118195056 78 355 0.0 0.0 0.00 0.05 0.00 91 1006.3
20171118193541 78 355 0.0 0.0 0.00 0.05 0.00 91 1006.3
20171118192046 78 355 0.0 0.0 0.00 0.05 0.00 91 1006.4
20171118190543 78 355 0.0 0.0 0.00 0.05 0.00 92 1006.5
20171118185038 78 355 0.0 0.0 0.00 0.05 0.00 91 1006.7
20171118183547 78 355 0.0 0.0 0.00 0.05 0.00 90 1007.0
20171118182053 78 355 0.0 0.0 0.00 0.05 0.00 90 1007.1
20171118180552 78 355 0.0 3.0 0.00 0.05 0.00 88 1007.4
20171118175031 78 15 0.0 3.0 0.00 0.05 0.00 88 1007.6
20171118173530 78 30 2.0 5.0 0.00 0.05 0.00 88 1007.6
20171118172036 78 24 0.0 4.0 0.00 0.05 0.00 88 1007.6
20171118170529 79 9 2.0 4.0 0.00 0.05 0.00 88 1007.6
20171118165027 79 17 0.0 3.0 0.00 0.05 0.00 88 1007.9
20171118163535 78 17 1.0 3.0 0.00 0.05 0.00 89 1008.0
20171118162025 78 360 2.0 4.0 0.00 0.05 0.00 90 1008.1
20171118160537 77 360 3.0 5.0 0.01 0.05 0.00 91 1008.1
20171118155016 77 38 0.0 0.0 0.01 0.05 0.05 92 1008.2
20171118153520 77 38 0.0 0.0 0.01 0.05 0.05 92 1008.2
20171118152019 78 38 0.0 0.0 0.01 0.05 0.05 92 1008.3
20171118150516 77 38 0.0 0.0 0.00 0.04 0.04 92 1008.3
20171118145022 77 38 0.0 0.0 0.00 0.04 0.04 92 1008.3
20171118143518 77 38 0.0 0.0 0.00 0.04 0.04 93 1008.1
20171118142014 77 38 0.0 0.0 0.00 0.04 0.04 93 1007.9
20171118140521 77 38 1.0 3.0 0.00 0.04 0.04 92 1007.7
20171118135035 78 24 0.0 2.0 0.00 0.04 0.04 92 1007.6
20171118133523 77 323 0.0 2.0 0.00 0.04 0.04 92 1007.7
20171118132012 77 279 0.0 2.0 0.00 0.04 0.04 91 1007.4
20171118130514 78 281 0.0 0.0 0.00 0.04 0.04 89 1007.3
20171118125025 77 281 0.0 0.0 0.00 0.04 0.04 88 1007.0
20171118123513 77 281 0.0 0.0 0.00 0.04 0.04 90 1006.8
20171118122011 78 281 0.0 0.0 0.00 0.04 0.04 89 1006.4
20171118120513 77 281 0.0 2.0 0.00 0.04 0.04 91 1006.1
20171118115011 77 280 0.0 2.0 0.00 0.04 0.04 92 1006.0
20171118113508 76 59 0.0 2.0 0.00 0.04 0.04 92 1005.9
20171118112019 77 59 0.0 0.0 0.00 0.04 0.04 92 1005.8
20171118110510 77 61 0.0 2.0 0.00 0.04 0.04 91 1005.5
20171118105007 77 53 0.0 4.0 0.00 0.04 0.04 90 1004.9
20171118103507 77 350 0.0 1.0 0.01 0.04 0.04 90 1004.8
20171118102008 76 350 1.0 6.0 0.04 0.04 0.04 90 1004.6
20171118100516 76 83 0.0 0.0 0.04 0.04 0.04 92 1004.5
20171118095008 76 54 1.0 5.0 0.04 0.04 0.04 92 1004.6
20171118093507 77 22 2.0 6.0 0.03 0.03 0.03 90 1004.7
20171118092007 79 334 3.0 8.0 0.00 0.00 0.00 85 1004.8
20171118090506 81 57 0.0 4.0 0.00 0.00 0.00 82 1004.6
20171118085010 81 147 1.0 6.0 0.00 0.00 0.00 81 1004.4